Regional Weather Roundup
Issued by NWS

Home | Current Version | Previous Version | Graphics & Text | Print | Product List | Glossary On
Versions: 1 2 3 4 5 6 7 8 9 10 11 12 13 14 15 16 17 18 19 20 21 22 23 24 25 26 27
000
ASUS45 KSLC 041210
RWRUT

UTAH REGIONAL WEATHER ROUNDUP
NATIONAL WEATHER SERVICE SALT LAKE CITY UT
500 AM MST SUN DEC 04 2016

UTZ001>011-023>025-041300-

NORTHERN UTAH

CITY           SKY/WX    TMP DP  RH WIND       PRES   REMARKS
BRIGHAM CITY     N/A     33  20  59 CALM      30.19F
HILL AFB       PTCLDY    24  17  74 E6        30.18F WCI  16
LOGAN          CLOUDY   N/A N/A N/A NE3       30.17F
OGDEN          PTCLDY    23  18  81 S6        30.18F WCI  16
SALT LAKE CITY PTCLDY    28  20  71 SE10      30.20S WCI  19
TOOELE VALLEY  PTCLDY    27  21  80 S15       30.18F WCI  15
WENDOVER       CLEAR     21  12  68 NE7       30.18F WCI  13
HEBER CITY     FOG       12  10  92 CALM      30.19F VSB 1/2
WEST JORDAN    PTCLDY    27  23  85 S13       30.20S WCI  16

$$

UTZ011>015-024>027-041300-

CENTRAL/NORTHEAST UTAH

CITY           SKY/WX    TMP DP  RH WIND       PRES   REMARKS
PROVO AIRPORT  PTCLDY    20  14  77 SE5       30.23F WCI  13
MOAB/CANYONLAN CLEAR     20  13  74 CALM      30.20F
DELTA          MOCLDY    14  12  92 CALM      30.22F
PRICE          CLEAR     17  12  80 N5        30.16F WCI  10
RICHFIELD      PTCLDY    14  12  92 CALM      30.26
ROOSEVELT      CLOUDY    16  12  86 W5        30.20F WCI   9
VERNAL         CLOUDY    15   9  76 W3        30.18F

$$

UTZ013>016-019>022-027-041300-

SOUTHERN UTAH

CITY           SKY/WX    TMP DP  RH WIND       PRES   REMARKS
BRYCE CANYON   NOT AVBL
CEDAR CITY     PTCLDY    19  12  74 S5        30.19S WCI  12
MILFORD        PTCLDY    13   9  84 S6        30.21F WCI   4
ST GEORGE      MOSUNNY   30  12  47 E5        30.23R WCI  25
HANKSVILLE     PTCLDY    14  10  85 CALM      30.24S
KANAB          CLEAR     21  16  79 CALM      30.22
BLANDING       CLEAR     20  12  70 N6        30.23S WCI  13

$$

REGIONAL REPORTS     COLORADO/ARIZONA

CITY           SKY/WX    TMP DP  RH WIND       PRES   REMARKS
CRAIG, CO      CLOUDY     6   2  83 CALM      30.17F
GRAND JUNCTION CLOUDY    21  14  74 CALM      30.21F
RIFLE, CO      CLOUDY    13  10  88 E5        30.24F WCI   5
MONTROSE, CO   CLOUDY    14   9  80 SE7       30.25S WCI   4
CORTEZ, CO     CLOUDY    14   9  80 E8        30.16R WCI   3
COLORADO CITY    N/A     19  18  93 SE3       30.21S
PAGE, AZ       PTCLDY    29  10  45 CALM      30.18F
GRAND CANYON   PTCLDY    11   7  84 E3        30.16F
KINGMAN, AZ    CLEAR     35  10  35 E12       30.15S WCI  27
FLAGSTAFF, AZ  CLEAR     26   6  42 VRB5      30.15R WCI  20

$$

REGIONAL REPORTS    NEVADA/IDAHO/WYOMING

CITY           SKY/WX    TMP DP  RH WIND       PRES   REMARKS
LAS VEGAS, NV  CLEAR     39  12  33 CALM      30.17F
ELY, NY        CLEAR     17   8  67 S14       30.19F WCI   3
ELKO, NV       CLEAR     16  12  84 SE3       30.16F
POCATELLO, ID  CLOUDY    35  21  56 S14       30.07F WCI  26
BURLEY, ID     CLOUDY    34  19  54 SW13      30.08F WCI  25
FORT BRIDGER,    N/A     22  16  78 SW12      30.11F WCI  11
EVANSTON, WY   CLOUDY    20  13  74 SW12      30.10F WCI   8
ROCK SPRINGS,  CLOUDY    23  14  68 SW18G30   30.07S WCI   9

$$




USA.gov is the U.S. government's official web portal to all federal, state and local government web resources and services.